User: anonymous
Location: Caltech
(34.1382°N, 118.1253°W)
Time: 10:35:43
(UTC-07:00)
Language:

Cosmos 1733 Rocket - Orbit

View from above orbital plane
View from above orbital plane
View from above satellite
View from above satellite

Ground track
Ground track

The orbit data is extracted from the following two-line orbital elements,

1 16612U 86018B   14108.54779631  .00000530  00000-0  61418-4 0  8794
2 16612 082.5150 300.2972 0017695 011.1633 040.7591 14.83523515420071
Epoch (UTC): 18 April 2014 13:08:49
Eccentricity: 0.0017695
inclination: 82.5150°
perigee height: 606 km
apogee height: 630 km
right ascension of ascending node: 300.2972°
argument of perigee: 11.1633°
revolutions per day: 14.83523515
mean anomaly at epoch: 40.7591°
orbit number at epoch: 42007

The dashed part of the orbit path shows where the satellite is in the earth's shadow,  

DLR